Regional Weather Roundup
Issued by NWS

Home | Current Version | Previous Version | Text Only | Print | Product List | Glossary Off
Versions: 1 2 3 4 5 6 7 8 9 10 11 12 13 14 15 16 17 18 19 20 21 22 23 24 25 26 27 28 29 30 31 32 33 34 35 36 37 38 39 40 41 42 43 44 45 46 47 48 49 50

000
ASUS45 KCYS 060910
RWRWY

WYOMING REGIONAL WEATHER ROUNDUP
NATIONAL WEATHER SERVICE CHEYENNE WY
300 AM MDT WED MAY 06 2015

NOTE:  "FAIR" INDICATES FEW OR NO CLOUDS BELOW 12,000 FEET
WITH NO SIGNIFICANT WEATHER AND/OR OBSTRUCTIONS TO VISIBILITY.

WYZ001-061000-
YELLOWSTONE NATIONAL PARK

CITY           SKY/WX    TMP DP  RH WIND       PRES   REMARKS
LK YELLOWSTONE   N/A     32  29  88 CALM      29.90F
W YELLOWSTONE  NOT AVBL

$$
WYZ002>013-054>058-071-098>099-061000-
NORTHERN WYOMING

CITY           SKY/WX    TMP DP  RH WIND       PRES   REMARKS
JACKSON        FAIR      39  39 100 NE5       29.84F
CODY           CLOUDY    52  43  71 N10       29.78S
GREYBULL       CLOUDY    59  44  57 NW16      29.70S
WORLAND        CLOUDY    56  47  71 N8        29.72F
SHERIDAN       FAIR      52  44  74 NW13      29.71S
BUFFALO        FAIR      47  44  90 NW3       29.73F
GILLETTE       FAIR      51  47  86 S13       29.71S
HULETT         CLOUDY    55  46  71 S6        29.74F
NEWCASTLE      PTSUNNY   52  46  82 SE9       29.75F

$$
WYZ014>020-022>026-101>103-061000-
CENTRAL WYOMING

CITY           SKY/WX    TMP DP  RH WIND       PRES   REMARKS
BIG PINEY      FAIR      43  37  79 CALM      29.84F
PINEDALE       FAIR      43  37  81 NW5       29.84S
DUBOIS         FAIR      43  36  75 NW9       29.82S
LANDER         LGT RAIN  51  45  79 VRB3      29.75R
RIVERTON       CLOUDY    54  43  66 N12       29.75F
CASPER         FAIR      44  42  93 NE6       29.71F
DOUGLAS        FAIR      50  48  93 SE12      29.72F

$$
WYZ021-027>030-104>119-061000-
SOUTHERN WYOMING

CITY           SKY/WX    TMP DP  RH WIND       PRES   REMARKS
EVANSTON       CLOUDY    44  42  93 SW8       29.87F FOG
KEMMERER       CLOUDY    43  41  93 W5        29.86F
FORT BRIDGER   CLOUDY    46  45  93 W9        29.88F
ROCK SPRINGS   CLOUDY    47  41  80 SW15      29.81F
DIXON          CLOUDY    48  45  90 CALM      29.83S
RAWLINS        MOCLDY    44  40  85 CALM      29.79F
SARATOGA       CLOUDY    45  41  87 W5        29.80S
LARAMIE        CLOUDY    41  39  93 SW3       29.76F
CHEYENNE       LGT RAIN  47  45  93 N9        29.73F FOG
TORRINGTON     LGT RAIN  51  50  96 E9        29.70F FOG
PINE BLUFFS    DRIZZLE   50  48  93 E6        29.71F

$$


USA.gov is the U.S. government's official web portal to all federal, state and local government web resources and services.